Location: Byhalia Creek
(34.8270°N, 89.8040°W)
Time: 20:39:37
(UTC+00:00)

Cosmos 1805 Rocket - Pass Details

Date: 22 April 2026
Orbit: 599 x 623 km, 82.5° (Epoch: 21 May)

Event Time Altitude Azimuth Distance (km) Brightness Sun altitude
Rises 10:37:37 0° 345° (NNW) 2,890 7.1 -8.8°
Reaches altitude 10° 10:39:56 10° 340° (NNW) 1,977 6.2 -8.4°
Maximum altitude 10:44:05 44° 268° (W) 841 3.8 -7.6°
Drops below altitude 10° 10:48:12 10° 196° (SSW) 1,949 5.8 -6.8°
Sets 10:50:27 0° 189° (S) 2,845 6.7 -6.4°
